Regional Weather Roundup
Issued by NWS

Home | Current Version | Previous Version | Text Only | Print | Product List | Glossary Off
Versions: 1 2 3 4 5 6 7 8 9 10 11 12 13 14 15 16 17 18 19 20 21 22 23 24 25 26 27 28 29 30 31 32 33 34 35 36 37 38 39 40 41 42 43 44 45 46 47 48 49 50

474
ASUS44 KMEG 290110
RWRTN
TENNESSEE HOURLY STATE WEATHER ROUNDUP
NATIONAL WEATHER SERVICE MEMPHIS TN
800 PM CDT WED SEP 28 2016

TNZ002-004-019-021-049-052-054-088>092-290200-
WEST TENNESSEE

CITY           SKY/WX    TMP DP  RH WIND       PRES   REMARKS
MEMPHIS INTL   MOCLDY    76  48  37 N25G31    29.98R
NWS MEMPHIS      N/A     74 N/A N/A MISG        N/A
JACKSON        PTCLDY   N/A N/A N/A N12       30.01R
DYERSBURG      CLEAR    N/A N/A N/A MISG        N/A
UNION CITY     CLEAR     63  46  55 N14       30.03R
PARIS          CLEAR     61  46  59 N10       30.03R
HUNTINGDON     MOCLDY    64  48  55 VRB6G15   30.01R
LEXINGTON      MOCLDY    66  50  55 N6        29.99R
$$

TNZ008-025-027-028-033-062-065-066-290200-
NORTH MIDDLE TENNESSEE

CITY           SKY/WX    TMP DP  RH WIND       PRES   REMARKS
NASHVILLE      RAIN      64  54  69 N7        29.99R
PORTLAND       PTCLDY    59  59 100 CALM      29.99R FOG
CLARKSVILLE    CLEAR     62  47  57 N12       30.01R
SMYRNA         CLOUDY    65  53  65 N7        30.00R
COOKEVILLE     MOCLDY    63  55  77 VRB6      29.97R
GALLATIN       CLOUDY    61  59  94 S5        30.02R
CROSSVILLE     CLOUDY    64  53  67 NW10G23   29.99R
$$

TNZ061-075-076-078-094-096-097-290200-
SOUTH MIDDLE TENNESSEE

CITY           SKY/WX    TMP DP  RH WIND       PRES   REMARKS
FAYETTEVILLE   CLOUDY    73  48  40 W3        29.93R
TULLAHOMA      PTCLDY    68  54  60 N20       29.97R
WINCHESTER     MOCLDY    66  52  59 SE3       29.93S
MCMINNVILLE    MOCLDY    66  54  63 N10       29.98R
COLUMBIA       MOCLDY    68  57  68 N5        29.97R
SHELBYVILLE    CLOUDY    70  52  52 N13       29.99R
$$

TNZ017-018-042-046-047-290200-
NORTHEAST TENNESSEE

CITY           SKY/WX    TMP DP  RH WIND       PRES   REMARKS
TRI CITIES     PTCLDY    61  52  72 CALM      29.93R
ELIZABETHTON     N/A     59  54  82 CALM      29.94R
$$

TNZ012-013-036-069-073-074-290200-
CENTRAL EAST TENNESSEE

CITY           SKY/WX    TMP DP  RH WIND       PRES   REMARKS
KNOXVILLE      PTCLDY    72  46  39 SW6       29.90R
OAK RIDGE      PTCLDY    70  50  49 CALM      29.91S
DOWNTOWN KNOXV CLEAR     70  48  46 W5        29.90S
GATLINBURG     CLEAR     66  46  48 CALM      29.91R
MORRISTOWN     CLEAR     72  43  35 W3        29.91R
JACKSBORO      CLOUDY    70  52  52 VRB5G14   29.97R
$$

TNZ083-085-099-290200-
SOUTHEAST TENNESSEE

CITY           SKY/WX    TMP DP  RH WIND       PRES   REMARKS
CHATTANOOGA    PTCLDY    69  49  48 CALM      29.91R
$$

SKY/WX REPORTED AS FAIR MEANS FEW OR NO CLOUDS BELOW
12 THOUSAND FEET.





USA.gov is the U.S. government's official web portal to all federal, state and local government web resources and services.